Location: Julian California
(33.0790°N, 116.6010°W)
Time: 23:24:22
(UTC-08:00)

Cosmos 1953 Rocket - Pass Details

Date: 14 June 2018
Orbit: 605 x 634 km, 82.5° (Epoch: 15 November)

Event Time Altitude Azimuth Distance (km) Brightness Sun altitude
Exits shadow 21:59:26 43° 86° (E) 853 4.0 -20.9°
Drops below altitude 10° 22:03:24 10° 21° (NNE) 1,965 6.5 -21.5°
Sets 22:05:42 0° 15° (NNE) 2,877 7.5 -21.8°
